Weather reports worldwide

Advertisment
Jativa, Spain (8290): temperature & dewpoint: 20.09.2018 17:00:00 - 26.09.2018 17:00:00 (CEST)Jativa, Spain (8290): wind speed & gusts: 20.09.2018 17:00:00 - 26.09.2018 17:00:00 (CEST)Jativa, Spain (8290): wind direction: 20.09.2018 17:00:00 - 26.09.2018 17:00:00 (CEST)Jativa, Spain (8290): reduced air pressure: 20.09.2018 17:00:00 - 26.09.2018 17:00:00 (CEST)Jativa, Spain (8290): visibility: 20.09.2018 17:00:00 - 26.09.2018 17:00:00 (CEST)Jativa, Spain (8290): sunshine duration: 20.09.2018 17:00:00 - 26.09.2018 17:00:00 (CEST)Jativa, Spain (8290): precipitation: 20.09.2018 17:00:00 - 26.09.2018 17:00:00 (CEST)
Date & Time tt [°C] td [°C] ff [km/h] ff [kn] fx [km/h] fx [kn] dd ppp [hPa] vv [km] sd [min] rr [mm]
26.09.2018 17:00:00 22,6 18,2 14 7 29 16 NNE 1028,3 20 0 0,0
26.09.2018 16:00:00 22,5 18,7 11 6 25 14 NNE 1028,3 20 0 0,0
26.09.2018 15:00:00 22,4 20,3 13 7 28 15 N 1028,3 20 3 0,0
26.09.2018 14:00:00 21,9 20,2 15 8 33 18 N 1028,4 20 6 -
26.09.2018 13:00:00 20,3 19,8 18 10 36 20 N 1028,6 16 0 3,2
26.09.2018 12:00:00 20,5 19,5 16 8 34 18 N 1028,5 14 0 0,4
26.09.2018 11:00:00 19,9 19,1 4 2 11 6 WSW 1028,4 9 0 2,6
26.09.2018 10:00:00 19,7 19,1 5 3 11 6 WSW 1027,8 11 0 2,2
26.09.2018 09:00:00 19,6 18,6 3 2 11 6 WNW 1027,6 6 0 1,4
26.09.2018 08:00:00 19,5 18,3 5 3 11 6 WNW 1026,9 9 0 -
26.09.2018 07:00:00 19,3 18,2 5 3 13 7 WSW 1026,3 10 0 0,0
26.09.2018 06:00:00 19,3 17,9 6 3 13 7 WSW 1026,1 20 0 0,0
26.09.2018 05:00:00 19,1 17,8 7 4 13 7 WSW 1026,2 20 0 0,2
26.09.2018 04:00:00 19,2 17,7 8 4 13 7 WSW 1026,3 20 0 0,0
26.09.2018 03:00:00 19,2 18,2 7 4 16 9 W 1026,7 11 0 0,0
26.09.2018 02:00:00 19,1 17,9 8 4 14 7 WSW 1026,6 15 0 -
26.09.2018 01:00:00 19,1 17,8 8 4 11 6 SW 1026,7 15 0 0,2
26.09.2018 00:00:00 - - - - - - - - - - -
25.09.2018 23:00:00 19,2 18,5 11 6 21 11 N 1026,1 11 0 0,0
25.09.2018 22:00:00 19,4 18,9 10 5 25 13 N 1025,6 8 0 0,4
25.09.2018 21:00:00 19,4 18,9 13 7 26 14 N 1025,1 2,4 0 1,0
25.09.2018 20:00:00 - - - - - - - - - - -
25.09.2018 19:00:00 19,5 18,8 14 7 25 13 NNW 1024,0 11 0 0,0
25.09.2018 18:00:00 19,8 19,1 13 7 29 16 NNW 1023,8 11 0 0,4
25.09.2018 17:00:00 19,9 18,9 13 7 34 18 NNW 1023,8 3,0 0 0,0
25.09.2018 16:00:00 20,7 19,2 23 12 41 22 N 1023,5 20 0 0,0
25.09.2018 15:00:00 22,6 19,0 18 10 33 18 N 1023,7 20 10 0,0
25.09.2018 14:00:00 - - - - - - - - - - -
25.09.2018 13:00:00 - - - - - - - - - - -
25.09.2018 12:00:00 - - - - - - - - - - -
25.09.2018 11:00:00 23,6 19,1 9 5 18 10 N 1024,0 20 0 0,0
25.09.2018 10:00:00 23,6 20,3 3 2 6 4 NNE 1023,1 12 41 0,0
25.09.2018 09:00:00 21,3 19,8 2 1 5 3 N 1022,8 20 20 0,0
25.09.2018 08:00:00 20,4 19,2 3 1 6 3 SW 1022,4 20 0 -
25.09.2018 07:00:00 20,0 18,8 3 2 5 3 W 1022,0 20 0 0,0
25.09.2018 06:00:00 20,3 18,8 2 1 6 3 NE 1021,8 14 0 0,0
25.09.2018 05:00:00 21,0 19,3 2 1 9 5 WSW 1021,6 20 0 0,0
25.09.2018 04:00:00 21,0 19,1 4 2 7 4 WSW 1021,6 20 0 0,0
25.09.2018 03:00:00 21,5 19,3 5 3 6 3 WSW 1022,0 20 0 0,0
25.09.2018 02:00:00 21,9 19,4 1 1 5 3 NW 1022,0 20 0 -
25.09.2018 01:00:00 22,4 19,8 2 1 5 3 SW 1021,9 20 0 0,0
25.09.2018 00:00:00 23,0 19,6 3 2 8 4 SW 1021,7 20 0 0,0
24.09.2018 23:00:00 23,6 19,8 3 1 10 5 SSW 1021,3 20 0 0,0
24.09.2018 22:00:00 24,3 19,6 7 4 11 6 WSW 1020,7 20 0 0,0
24.09.2018 21:00:00 25,3 18,5 3 2 13 7 NNW 1019,7 20 0 0,0
24.09.2018 20:00:00 27,0 18,3 8 4 16 9 NE 1019,1 20 0 -
24.09.2018 19:00:00 29,5 17,0 9 5 16 9 ENE 1018,5 20 10 0,0
24.09.2018 18:00:00 30,9 15,3 12 7 26 14 ENE 1018,3 20 60 0,0
24.09.2018 17:00:00 31,1 16,6 16 9 29 15 ENE 1018,6 20 60 0,0
24.09.2018 16:00:00 31,8 14,9 20 11 28 15 E 1019,1 11 60 0,0
24.09.2018 15:00:00 32,8 13,9 10 5 23 12 E 1019,5 20 60 0,0
24.09.2018 14:00:00 31,9 14,5 8 4 22 12 NNE 1020,2 20 60 -
24.09.2018 13:00:00 31,2 14,8 9 5 17 9 NNE 1021,0 20 60 0,0
24.09.2018 12:00:00 30,2 14,7 7 4 13 7 NE 1021,4 20 60 0,0
24.09.2018 11:00:00 28,0 14,2 2 1 9 5 NW 1021,6 20 60 0,0
24.09.2018 10:00:00 25,4 15,2 6 3 14 7 W 1021,4 20 60 0,0
24.09.2018 09:00:00 22,6 13,9 8 5 13 7 SW 1020,9 20 52 0,0
24.09.2018 08:00:00 21,3 14,2 5 3 16 8 W 1020,2 20 0 -
24.09.2018 07:00:00 21,3 14,2 8 4 19 10 WSW 1019,8 20 0 0,0
24.09.2018 06:00:00 22,0 14,6 9 5 14 8 W 1019,7 20 0 0,0
24.09.2018 05:00:00 22,3 14,7 7 4 21 11 SW 1020,0 20 0 0,0
24.09.2018 04:00:00 21,9 15,5 8 4 12 7 W 1020,1 20 0 0,0
24.09.2018 03:00:00 22,5 16,3 6 3 14 8 W 1020,3 20 0 0,0
24.09.2018 02:00:00 22,6 19,2 6 3 11 6 W 1020,6 20 0 -
24.09.2018 01:00:00 23,2 20,3 7 4 10 5 WSW 1020,6 19 0 0,0
24.09.2018 00:00:00 24,6 21,1 3 1 5 3 W 1020,5 19 0 0,0
23.09.2018 23:00:00 25,1 21,2 4 2 11 6 ESE 1020,4 20 0 0,0
23.09.2018 22:00:00 25,9 20,3 7 4 17 9 E 1020,0 20 0 0,0
23.09.2018 21:00:00 27,6 19,9 7 4 13 7 ESE 1018,9 20 0 0,0
23.09.2018 20:00:00 29,8 20,7 7 4 9 5 E 1018,4 20 0 -
23.09.2018 19:00:00 32,6 19,5 6 3 18 10 N 1017,9 20 10 0,0
23.09.2018 18:00:00 34,5 17,7 9 5 16 9 N 1018,0 20 60 0,0
23.09.2018 17:00:00 35,5 15,8 6 3 15 8 NNE 1018,3 20 60 0,0
23.09.2018 16:00:00 35,4 13,6 6 4 14 7 N 1019,0 20 60 0,0
23.09.2018 15:00:00 34,2 14,6 5 3 14 7 NNE 1020,0 20 60 0,0
23.09.2018 14:00:00 32,9 14,5 5 3 15 8 E 1021,0 20 60 -
23.09.2018 13:00:00 31,5 16,2 6 4 14 8 NNE 1021,7 20 60 0,0
23.09.2018 12:00:00 30,4 16,8 4 2 8 5 N 1022,2 20 60 0,0
23.09.2018 11:00:00 27,9 16,2 3 2 14 7 WSW 1022,5 20 60 0,0
23.09.2018 10:00:00 24,7 16,6 9 5 16 9 WSW 1022,4 20 60 0,0
23.09.2018 09:00:00 22,1 17,2 9 5 15 8 W 1022,0 20 50 0,0
23.09.2018 08:00:00 20,3 17,3 8 5 12 7 W 1021,8 20 0 -
23.09.2018 07:00:00 20,7 17,7 5 3 10 5 WSW 1021,4 20 0 0,0
23.09.2018 06:00:00 21,0 18,2 7 4 11 6 WSW 1021,3 20 0 0,0
23.09.2018 05:00:00 21,3 18,7 4 2 14 8 WSW 1021,3 20 0 0,0
23.09.2018 04:00:00 21,9 19,1 8 5 14 8 WSW 1021,6 20 0 0,0
23.09.2018 03:00:00 22,4 19,9 7 4 12 6 W 1021,9 19 0 0,0
23.09.2018 02:00:00 22,9 20,3 6 4 9 5 W 1022,1 16 0 -
23.09.2018 01:00:00 23,5 20,7 4 2 7 4 WSW 1022,2 17 0 0,0
23.09.2018 00:00:00 24,6 19,8 0 0 6 3 N 1022,1 20 0 0,0
22.09.2018 23:00:00 24,9 19,7 4 2 12 6 N 1021,9 20 0 0,0
22.09.2018 22:00:00 25,4 21,1 9 5 23 13 N 1021,3 20 0 0,0
22.09.2018 21:00:00 26,1 21,5 10 5 21 11 NE 1020,4 20 0 0,0
22.09.2018 20:00:00 28,2 21,0 13 7 19 10 NE 1019,3 20 0 -
22.09.2018 19:00:00 31,5 20,1 8 4 13 7 NE 1018,6 20 10 0,0
22.09.2018 18:00:00 34,5 14,9 4 2 9 5 NNE 1018,6 20 60 0,0
22.09.2018 17:00:00 34,7 14,6 5 3 14 8 N 1018,9 20 60 0,0
22.09.2018 16:00:00 33,7 14,2 4 2 16 8 ENE 1019,6 20 60 0,0
22.09.2018 15:00:00 33,0 12,6 6 3 16 9 ENE 1020,3 20 60 0,0
22.09.2018 14:00:00 31,2 13,5 7 4 16 9 NNE 1021,3 20 60 -
22.09.2018 13:00:00 29,8 17,6 6 3 13 7 NE 1021,9 20 60 0,0
22.09.2018 12:00:00 28,8 17,4 4 2 13 7 ESE 1022,2 20 60 0,0
22.09.2018 11:00:00 26,7 16,3 2 1 9 5 WSW 1022,4 20 60 0,0
22.09.2018 10:00:00 24,6 17,3 5 3 12 6 WSW 1022,3 20 60 0,0
22.09.2018 09:00:00 21,5 17,7 4 2 8 5 WNW 1021,9 20 50 0,0
22.09.2018 08:00:00 19,6 17,2 2 1 9 5 W 1021,2 20 0 -
22.09.2018 07:00:00 20,3 17,9 5 3 11 6 SW 1020,6 20 0 0,0
22.09.2018 06:00:00 20,0 17,6 7 4 11 6 WSW 1020,1 20 0 0,0
22.09.2018 05:00:00 20,8 17,4 3 2 8 4 W 1019,9 20 0 0,0
22.09.2018 04:00:00 21,6 17,8 2 1 13 7 WSW 1019,9 20 0 0,0
22.09.2018 03:00:00 21,7 17,5 5 3 13 7 WSW 1020,1 20 0 0,0
22.09.2018 02:00:00 22,2 17,5 9 5 14 7 WSW 1019,8 20 0 -
22.09.2018 01:00:00 22,8 18,3 6 4 9 5 W 1019,7 20 0 0,0
22.09.2018 00:00:00 24,0 18,6 5 3 8 4 W 1019,4 20 0 0,0
21.09.2018 23:00:00 25,2 18,6 2 1 13 7 S 1019,0 20 0 0,0
21.09.2018 22:00:00 25,8 19,4 8 4 19 10 NNW 1018,5 20 0 0,0
21.09.2018 21:00:00 27,1 16,4 10 5 18 10 N 1017,4 20 0 0,0
21.09.2018 20:00:00 29,6 16,4 3 2 15 8 ESE 1015,9 20 0 -
21.09.2018 19:00:00 32,1 16,8 6 3 17 9 N 1015,2 20 16 0,0
21.09.2018 18:00:00 34,3 15,3 10 5 18 10 N 1014,8 20 60 0,0
21.09.2018 17:00:00 35,3 12,8 5 3 15 8 N 1015,1 20 60 0,0
21.09.2018 16:00:00 34,7 12,4 6 4 15 8 NE 1015,4 20 60 0,0
21.09.2018 15:00:00 34,1 12,4 5 3 16 9 NE 1015,8 20 60 0,0
21.09.2018 14:00:00 33,1 14,2 8 4 14 7 E 1016,6 20 60 -
21.09.2018 13:00:00 32,0 12,7 4 2 13 7 E 1017,1 20 60 0,0
21.09.2018 12:00:00 29,6 17,1 5 3 11 6 ENE 1017,3 20 60 0,0
21.09.2018 11:00:00 27,6 17,5 4 2 8 4 E 1017,3 20 60 0,0
21.09.2018 10:00:00 23,9 18,8 3 1 5 3 SE 1017,4 20 60 0,0
21.09.2018 09:00:00 20,3 17,5 2 1 5 3 WSW 1017,3 20 49 0,0
21.09.2018 08:00:00 19,1 17,2 5 3 11 6 SSW 1017,1 20 0 -
21.09.2018 07:00:00 19,0 17,0 5 3 10 5 SW 1016,6 20 0 0,0
21.09.2018 06:00:00 19,2 17,1 3 2 9 5 WSW 1016,6 20 0 0,0
21.09.2018 05:00:00 19,4 17,2 3 2 8 5 WSW 1016,4 20 0 0,0
21.09.2018 04:00:00 19,8 17,5 5 3 10 5 W 1016,9 20 0 0,0
21.09.2018 03:00:00 20,3 17,9 6 4 15 8 WSW 1017,2 20 0 0,0
21.09.2018 02:00:00 20,9 18,3 8 4 13 7 W 1017,6 20 0 -
21.09.2018 01:00:00 21,4 18,8 5 3 8 4 WSW 1018,0 20 0 0,0
21.09.2018 00:00:00 22,5 19,3 3 2 9 5 WNW 1018,1 20 0 0,0
20.09.2018 23:00:00 23,3 19,8 5 3 7 4 W 1018,1 20 0 0,0
20.09.2018 22:00:00 24,7 19,8 4 2 11 6 SSW 1017,5 20 0 0,0
20.09.2018 21:00:00 25,8 19,0 3 2 9 5 W 1016,9 20 0 0,0
20.09.2018 20:00:00 28,2 16,5 5 3 14 8 ESE 1016,4 20 0 -
20.09.2018 19:00:00 30,1 15,8 11 6 18 10 ENE 1016,2 20 26 0,0
20.09.2018 18:00:00 31,9 16,6 9 5 17 9 ENE 1016,1 20 60 0,0
20.09.2018 17:00:00 32,2 16,5 10 5 23 13 ENE 1016,5 20 60 0,0

tt = temperature
td = dewpoint
ff = wind speed
fx = gusts
dd = wind direction
ppp = reduced air pressure
vv = visibility
sd = sunshine duration
rr = precipitation

Next stations